Location: Las Vegas
(36.1750°N, 115.1360°W)
Time: 03:04:55
(UTC-07:00)

ISS - Visible Passes

Search period start: 17 October 2019 00:00
Search period end: 27 October 2019 00:00
Orbit: 411 x 421 km, 51.6° (Epoch: 17 October)

Date Brightness Start Highest point End Pass type
(mag) Time Alt. Az. Time Alt. Az. Time Alt. Az.
21 Oct -0.8 06:19:11 10° S 06:21:42 20° SE 06:24:12 10° E visible
22 Oct -0.4 05:32:37 10° SE 05:33:19 10° SE 05:34:01 10° ESE visible
23 Oct -3.3 06:17:45 10° SW 06:21:04 65° SE 06:24:24 10° NE visible
24 Oct -2.1 05:29:53 12° SSW 05:32:34 33° SE 05:35:38 10° ENE visible
25 Oct -1.1 04:44:21 18° SE 04:44:21 18° SE 04:46:30 10° E visible
25 Oct -3.1 06:17:28 10° WSW 06:20:39 39° NW 06:23:50 10° NE visible
26 Oct -3.9 05:31:31 57° W 05:32:02 72° NW 05:35:23 10° NE visible
